Time,TemperatureF,DewpointF,PressureIn,WindDirection,WindDirectionDegrees,WindSpeedMPH,WindSpeedGustMPH,Humidity,HourlyPrecipIn,Conditions,Clouds,dailyrainin,SoftwareType,DateUTC
2013-09-04 00:14:00,57.0,53.0,30.04,WNW,300,2.0,8.0,88,0.00,,,0.00,,2013-09-04 04:14:00,
2013-09-04 00:54:00,57.0,53.0,30.05,NW,319,1.0,5.0,88,0.00,,,0.00,,2013-09-04 04:54:00,
2013-09-04 01:23:00,57.0,53.0,30.04,NW,315,1.0,5.0,88,0.00,,,0.00,,2013-09-04 05:23:00,
2013-09-04 01:53:00,56.0,53.0,30.05,WNW,288,1.0,4.0,89,0.00,,,0.00,,2013-09-04 05:53:00,
2013-09-04 02:22:00,55.0,52.0,30.05,North,0,0.0,4.0,89,0.00,,,0.00,,2013-09-04 06:22:00,
2013-09-04 02:52:00,55.0,52.0,30.06,North,0,0.0,2.0,90,0.00,,,0.00,,2013-09-04 06:52:00,
2013-09-04 03:22:00,53.0,51.0,30.06,North,0,0.0,1.0,94,0.00,,,0.00,,2013-09-04 07:22:00,
2013-09-04 03:52:00,53.0,51.0,30.06,SW,234,1.0,3.0,94,0.00,,,0.00,,2013-09-04 07:52:00,
2013-09-04 04:22:00,52.0,51.0,30.06,West,264,1.0,5.0,95,0.00,,,0.00,,2013-09-04 08:22:00,
2013-09-04 04:52:00,52.0,50.0,30.07,North,0,0.0,3.0,94,0.00,,,0.00,,2013-09-04 08:52:00,
2013-09-04 05:22:00,52.0,51.0,30.08,West,270,1.0,3.0,95,0.00,,,0.00,,2013-09-04 09:22:00,
2013-09-04 05:43:00,52.0,50.0,30.09,WNW,291,2.0,3.0,94,0.00,,,0.00,,2013-09-04 09:43:00,
2013-09-04 05:53:00,51.0,50.0,30.09,West,277,1.0,4.0,95,0.00,,,0.00,,2013-09-04 09:53:00,
2013-09-04 06:12:00,52.0,51.0,30.09,West,274,1.0,5.0,95,0.00,,,0.00,,2013-09-04 10:12:00,
2013-09-04 06:23:00,52.0,51.0,30.09,West,274,1.0,5.0,95,0.00,,,0.00,,2013-09-04 10:23:00,
2013-09-04 06:52:00,51.0,50.0,30.10,North,0,0.0,1.0,95,0.00,,,0.00,,2013-09-04 10:52:00,
2013-09-04 07:22:00,50.0,49.0,30.11,North,0,0.0,1.0,96,0.00,,,0.00,,2013-09-04 11:22:00,
2013-09-04 07:52:00,51.0,50.0,30.13,North,0,0.0,0.0,97,0.00,,,0.00,,2013-09-04 11:52:00,
2013-09-04 08:21:00,51.0,50.0,30.13,North,0,0.0,3.0,97,0.00,,,0.00,,2013-09-04 12:21:00,
2013-09-04 08:32:00,51.0,50.0,30.13,North,0,0.0,3.0,97,0.00,,,0.00,,2013-09-04 12:32:00,
2013-09-04 08:52:00,52.0,51.0,30.14,North,0,0.0,6.0,97,0.00,,,0.00,,2013-09-04 12:52:00,
2013-09-04 09:22:00,53.0,52.0,30.15,SW,234,2.0,8.0,97,0.00,,,0.00,,2013-09-04 13:22:00,
2013-09-04 09:52:00,54.0,53.0,30.16,SW,231,2.0,7.0,95,0.00,,,0.00,,2013-09-04 13:52:00,
2013-09-04 10:22:00,58.0,-99.9,-100.00,SW,234,6.0,11.0,-999,0.00,,,0.00,,2013-09-04 14:22:00,
2013-09-04 10:52:00,59.0,54.0,30.16,WSW,253,5.0,10.0,82,0.00,,,0.00,,2013-09-04 14:52:00,
2013-09-04 11:22:00,61.0,-99.9,-100.00,West,268,2.0,10.0,-999,0.00,,,0.00,,2013-09-04 15:22:00,
2013-09-04 11:54:00,62.0,-99.9,-100.00,WNW,289,6.0,10.0,-999,0.00,,,0.00,,2013-09-04 15:54:00,
2013-09-04 12:24:00,64.0,-99.9,-100.00,SW,220,4.0,10.0,-999,0.00,,,0.00,,2013-09-04 16:24:00,
2013-09-04 12:54:00,65.0,-99.9,-100.00,WSW,242,4.0,10.0,-999,0.00,,,0.00,,2013-09-04 16:54:00,
2013-09-04 13:23:00,66.0,-99.9,-100.00,West,259,4.0,13.0,-999,0.00,,,0.00,,2013-09-04 17:23:00,
2013-09-04 13:53:00,68.0,-99.9,-100.00,WSW,240,5.0,11.0,-999,0.00,,,0.00,,2013-09-04 17:53:00,
2013-09-04 14:22:00,70.0,-99.9,-100.00,West,259,4.0,9.0,-999,0.00,,,0.00,,2013-09-04 18:22:00,
2013-09-04 14:52:00,70.0,-99.9,-100.00,WSW,244,1.0,11.0,-999,0.00,,,0.00,,2013-09-04 18:52:00,
2013-09-04 15:22:00,70.0,52.0,30.12,WNW,299,3.0,13.0,53,0.00,,,0.00,,2013-09-04 19:22:00,
2013-09-04 15:52:00,71.0,50.0,30.11,West,262,4.0,13.0,48,0.00,,,0.00,,2013-09-04 19:52:00,
2013-09-04 16:22:00,71.0,-99.9,-100.00,WNW,282,5.0,10.0,-999,0.00,,,0.00,,2013-09-04 20:22:00,
2013-09-04 16:53:00,71.0,49.0,30.11,WSW,258,5.0,13.0,46,0.00,,,0.00,,2013-09-04 20:53:00,
2013-09-04 17:23:00,71.0,-99.9,-100.00,WSW,248,6.0,11.0,-999,0.00,,,0.00,,2013-09-04 21:23:00,
2013-09-04 17:54:00,71.0,-99.9,-100.00,WSW,244,4.0,10.0,-999,0.00,,,0.00,,2013-09-04 21:54:00,
2013-09-04 18:23:00,70.0,50.0,30.11,West,259,5.0,11.0,49,0.00,,,0.00,,2013-09-04 22:23:00,
2013-09-04 18:44:00,-999.0,-99.9,-100.00,WSW,251,6.0,13.0,-999,-99.99,,,-99.99,,2013-09-04 22:44:00,
2013-09-04 18:55:00,-999.0,-99.9,-100.00,WSW,251,6.0,13.0,-999,-99.99,,,-99.99,,2013-09-04 22:55:00,
2013-09-04 19:22:00,68.0,-99.9,-100.00,WSW,243,5.0,11.0,-999,-99.99,,,-99.99,,2013-09-04 23:22:00,
2013-09-04 19:52:00,65.0,-99.9,-100.00,WSW,240,2.0,7.0,-999,-99.99,,,-99.99,,2013-09-04 23:52:00,
2013-09-04 20:12:00,64.0,-99.9,-100.00,SW,228,1.0,6.0,-999,-99.99,,,-99.99,,2013-09-05 00:12:00,
2013-09-04 20:22:00,63.0,54.0,30.10,North,0,0.0,3.0,72,0.00,,,0.00,,2013-09-05 00:22:00,
2013-09-04 20:52:00,62.0,-99.9,-100.00,WSW,248,2.0,5.0,-999,0.00,,,-99.99,,2013-09-05 00:52:00,
2013-09-04 21:12:00,62.0,-99.9,-100.00,WSW,257,2.0,5.0,-999,-99.99,,,-99.99,,2013-09-05 01:12:00,
2013-09-04 21:22:00,62.0,-99.9,-100.00,WSW,257,2.0,5.0,-999,-99.99,,,-99.99,,2013-09-05 01:22:00,
2013-09-04 21:52:00,60.0,-99.9,-100.00,WSW,247,3.0,6.0,-999,-99.99,,,-99.99,,2013-09-05 01:52:00,
2013-09-04 22:22:00,60.0,-99.9,-100.00,SW,226,1.0,3.0,-999,-99.99,,,-99.99,,2013-09-05 02:22:00,
2013-09-04 23:12:00,59.0,54.0,30.13,North,0,0.0,2.0,85,0.00,,,0.00,,2013-09-05 03:12:00,
2013-09-04 23:22:00,59.0,54.0,30.13,North,0,0.0,2.0,85,0.00,,,0.00,,2013-09-05 03:22:00,
2013-09-04 23:34:00,59.0,54.0,30.13,North,0,0.0,2.0,85,0.00,,,0.00,,2013-09-05 03:34:00,
2013-09-04 23:54:00,59.0,55.0,30.14,SW,229,2.0,7.0,86,0.00,,,0.00,,2013-09-05 03:54:00,